Location: Babice
(50.3480°N, 22.9363°E)
Time: 12:42:10
(UTC+00:00)

Cosmos 2233 Rocket - Pass Details

Date: 14 July 2020
Orbit: 954 x 990 km, 82.9° (Epoch: 07 August)

Event Time Altitude Azimuth Distance (km) Brightness Sun altitude
Exits shadow 00:55:02 11° 185° (S) 2,634 5.7 -11.6°
Maximum altitude 01:01:03 86° 100° (E) 983 4.1 -11.1°
Drops below altitude 10° 01:07:22 10° 10° (N) 2,744 7.5 -10.5°
Sets 01:09:54 0° 11° (N) 3,701 8.3 -10.2°
